Regional Weather Roundup
Issued by NWS

Home | Current Version | Previous Version | Text Only | Print | Product List | Glossary On
Versions: 1 2 3 4 5 6 7 8 9 10 11 12 13 14 15 16 17 18 19 20 21 22 23 24 25 26 27 28 29 30 31 32 33 34 35 36 37 38 39 40 41 42 43 44 45 46 47 48 49 50
000
ASUS43 KLOT 300304
RWRIL

ILLINOIS REGIONAL WEATHER ROUNDUP
NATIONAL WEATHER SERVICE CHICAGO/ROMEOVILLE IL
1000 PM CDT MON MAY 29 2017

NOTE: "FAIR" INDICATES FEW OR NO CLOUDS BELOW 12,000 FEET WITH NO
SIGNIFICANT WEATHER AND/OR OBSTRUCTIONS TO VISIBILITY.

* THESE STATIONS ARE NOT UNDER NWS QUALITY CONTROL. THEY ALSO MAY NOT
  REPORT WEATHER SUCH AS PRECIPITATION OR FOG.

ILZ001-002-007-009-015-016-024-300400-
NORTHWEST ILLINOIS

CITY           SKY/WX    TMP DP  RH WIND       PRES   REMARKS
MOLINE         CLEAR     63  45  51 W6        29.92R
STERLING*      CLEAR     63  47  55 W8        29.91R
SAVANNA*       CLEAR     65  47  52 W7        29.91R
$$

ILZ003-004-008-010-011-017-018-300400-
NORTH CENTRAL ILLINOIS

CITY           SKY/WX    TMP DP  RH WIND       PRES   REMARKS
ROCKFORD       PTCLDY    62  47  57 CALM      29.90R
FREEPORT*      CLEAR     59  46  62 W6        29.91R
ROCHELLE*      PTCLDY    63  47  56 W9        29.90R
DE KALB*       MOCLDY    63  46  52 W9        29.90R
PERU*          CLEAR     62  44  52 W10       29.91R
$$

ILZ005-006-012>014-019>023-300400-
NORTHEAST ILLINOIS

CITY           SKY/WX    TMP DP  RH WIND       PRES   REMARKS
CHICAGO-OHARE  PTCLDY    64  46  52 W3        29.87R
CHICAGO-MIDWAY PTCLDY    67  45  45 W5        29.88R
AURORA         CLEAR     60  48  64 W6        29.89R
LANSING*       CLEAR     59  50  72 CALM      29.89S
JOLIET*        CLEAR     59  51  73 CALM      29.89S
WAUKEGAN       MOCLDY    58  50  75 CALM      29.86S
DUPAGE AIRPORT CLEAR     60  48  64 SW6       29.87S
KANKAKEE*      CLEAR     61  44  53 CALM      29.91R
WHEELING       CLEAR     65  46  50 CALM      29.88R
MORRIS*        CLEAR     63  46  53 CALM      29.89R
ROMEOVILLE*    CLEAR     64  49  59 W5        29.89S
NORTHERLY ISL    N/A     69  42  37 W3          N/A
$$

LMZ740>746-300400-
SOUTHERN LAKE MICHIGAN

STATION/POSITION SKY/WX   TEMP    WIND        PRES    VSBY  WAVE
                          AIR SEA DIR/SP/G                  HT/PER
                          (F)     (DEG/KT/KT) (MB)    (MI)  (FT/S)
SOUTHERN BUOY              53 48  310/  6/  8 1011.3          1/ 4
WILMETTE HARBOR            60 54  260/  4/  4   N/A           1
HARRISON CRIB              71     270/ 10/ 10   N/A
BURNHAM HARBOR             69     260/  4/  9   N/A
CALUMET HARBOR             69     250/  3/  4 1011.4R
BURNS HARBOR               64     240/  7/  9 1012.5R
MICHIGAN CITY              63     220/  6/  8   N/A
MICHIGAN CITY 6N           59 56  290/  4/  6   N/A           2/ 4
ST. JOSEPH                 60 59  190/  4/  6 1012.1R         2/ 4
$$

ILZ025>027-034>036-040-047-049-050-058-095>099-300400-
WEST-CENTRAL ILLINOIS

CITY           SKY/WX    TMP DP  RH WIND       PRES   REMARKS
QUINCY         PTCLDY    66  46  48 W5        29.96R
GALESBURG*     CLEAR     64  43  46 W6        29.93R
MACOMB*        CLEAR     63  44  49 W6        29.97R
JACKSONVILLE*  PTCLDY    66  46  48 W6        29.96R
PITTSFIELD*    PTCLDY    69  48  48 CALM      29.98R
$$

ILZ028>032-037-038-041>044-048-051>054-059>061-300400-
CENTRAL ILLINOIS

CITY           SKY/WX    TMP DP  RH WIND       PRES   REMARKS
PONTIAC        LGT RAIN  65  47  53 W7        29.93R
BLOOMINGTON    CLEAR     66  42  41 W7        29.95R
DECATUR        CLEAR     69  44  40 W5        29.95R
PEORIA         CLEAR     65  46  50 W5        29.93R
LACON*         CLEAR     60  47  63 SW3       29.91R
LINCOLN*       PTCLDY    67  43  41 CALM      29.94R
SPRINGFIELD    PTCLDY    66  52  60 W5        29.95R
TAYLORVILLE    CLEAR     64  50  60 SW3       29.96R
$$

ILZ033-039-045-046-055>057-062-063-300400-
EAST-CENTRAL ILLINOIS

CITY           SKY/WX    TMP DP  RH WIND       PRES   REMARKS
CHAMPAIGN      CLEAR     65  46  50 W6        29.95R
RANTOUL*       CLEAR     66  47  50 W5        29.94R
MATTOON        CLEAR     67  55  65 W5        29.94R
PARIS*         MOCLDY    65  58  78 SW7       29.95R
$$

ILZ079-100>102-300400-
SOUTHWEST ILLINOIS

CITY           SKY/WX    TMP DP  RH WIND       PRES   REMARKS
ALTON          CLEAR     66  61  82 CALM      29.95S
BELLEVILLE     CLEAR     65  62  90 CALM      29.98R
CAHOKIA*       CLEAR     65  62  90 S3        29.97R
SPARTA*        CLEAR     67  58  71 CALM      29.99R
$$

ILZ064>066-069>071-074>076-080>082-084>086-088>090-092>094-300400-
SOUTH-CENTRAL ILLINOIS

CITY           SKY/WX    TMP DP  RH WIND       PRES   REMARKS
CARBONDALE     PTCLDY    65  60  84 S5        29.97R
CAIRO*         PTCLDY    75  60  59 SW10      29.96R
EFFINGHAM*     CLEAR     60  60 100 CALM      29.98R
MARION         MOCLDY    63  63 100 CALM      29.99R
MT. VERNON       N/A     59  58  96 CALM      29.97R FOG
CENTRALIA*     CLEAR     65  58  77 CALM      29.96R
SALEM*         CLEAR     67  58  72 CALM      29.96R
METROPOLIS*    PTCLDY    74  59  58 SW6       29.96R
$$

ILZ067-068-072-073-078-083-087-091-300400-
SOUTHEAST ILLINOIS

CITY           SKY/WX    TMP DP  RH WIND       PRES   REMARKS
LAWRENCEVILLE  PTCLDY    68  53  58 W6        29.96R
FLORA*         PTCLDY    64  59  85 CALM      29.96R
FAIRFIELD*     PTCLDY    62  58  86 CALM      29.94R
HARRISBURG*    CLOUDY    65  63  91 SE5       29.97S
ROBINSON*      CLEAR     65  54  67 NW5       29.96R
CARMI*         CLOUDY    65  61  86 S9        29.96R
$$

ABBREVIATIONS USED IN REMARKS
   TC - TEMPERATURE IN CELSIUS
  WCI - WIND CHILL INDEX
   HX - HEAT INDEX
  VSB - VISIBILITY
$$





USA.gov is the U.S. government's official web portal to all federal, state and local government web resources and services.